sat.trackr.live / text

‹ back to catalog

STARLINK-36819

NORAD 67967 · 2026-038G

PAYLOAD ACTIVE UNKNOWN

§ Identity

Operator
Country
US
Launch date
2026-02-25
Launch site
AFWTR
Launch vehicle
Mass (kg)
RCS (m²)

Purposes: comms

External: N2YO · Heavens-Above · Gunter

§ Orbital elements

Epoch: 2026-05-25T00:14:47.404896Z

Period
93.91 min
Inclination
97.2841°
Eccentricity
0.0001744
Mean motion
15.33449747 rev/d
Perigee alt
464.3 km
Apogee alt
466.7 km
Semi-major
6,843.7 km
B*
5.7121e-4
RAAN
155.0090°
Arg perigee
92.0797°
Mean anomaly
268.0645°
Rev number
1,493

§ Raw data

STARLINK-368191 67967U 26038G   26145.01027089  .00018414  00000+0  57121-3 0  99952 67967  97.2841 155.0090 0001744  92.0797 268.0645 15.33449747 14933

JSON: /api/v1/satellites/67967 · /tle

For live sub-satellite position, see the globe view (requires WebGL).

§ Visibility from observer

Set your observer location to see the next 7 days of passes ≥ 10°. The values pass through the URL so the page stays shareable.

No JS? Fill the form by hand. The geolocation button needs JavaScript.